This is the latest recevied weather packets stored in our database for station/object HK3BJ-11. If no packets are shown the sender has not sent any weather packets the latest 10 day(s).
| Time | Temp. | Humidity | Pressure | Rain* | Wind** | Luminosity | Snow |
|---|---|---|---|---|---|---|---|
| 1787982477 | 11.67° C | 88% | 1019 hPa | 0 mm | - | - | - |
| 1787981534 | 11.67° C | 88% | 1019 hPa | 0 mm | - | - | - |
| 1787980593 | 11.67° C | 88% | 1020 hPa | 0 mm | - | - | - |
| 1787979652 | 11.67° C | 88% | 1020 hPa | 0 mm | - | - | - |
| 1787978707 | 11.67° C | 87% | 1020 hPa | 0 mm | - | - | - |
| 1787977765 | 11.67° C | 85% | 1020 hPa | 0 mm | - | - | - |
| 1787976823 | 11.67° C | 85% | 1020 hPa | 0 mm | - | - | - |
| 1787975883 | 11.67° C | 85% | 1020 hPa | 0 mm | - | - | - |
| 1787974941 | 11.67° C | 83% | 1020 hPa | 0 mm | - | - | - |
| 1787973997 | 11.67° C | 78% | 1020 hPa | 0 mm | - | - | - |
| 1787973053 | 11.67° C | 77% | 1020 hPa | 0 mm | - | - | - |
| 1787972110 | 12.22° C | 79% | 1020 hPa | 0 mm | - | - | - |
| 1787971168 | 12.22° C | 75% | 1020 hPa | 0 mm | - | - | - |
| 1787970225 | 12.22° C | 65% | 1020 hPa | 0 mm | - | - | - |
| 1787969280 | 12.22° C | 66% | 1020 hPa | 0 mm | - | - | - |
| 1787968331 | 12.78° C | 71% | 1020 hPa | 0 mm | - | - | - |
| 1787967387 | 11.67° C | 69% | 1019 hPa | 0 mm | - | - | - |
| 1787966440 | 13.89° C | 63% | 1019 hPa | 0 mm | - | - | - |
| 1787965496 | 13.89° C | 65% | 1019 hPa | 0 mm | - | - | - |
| 1787964544 | 13.33° C | 69% | 1019 hPa | 0 mm | - | - | - |
| 1787963590 | 13.33° C | 66% | 1018 hPa | 0 mm | - | - | - |
| 1787962639 | 14.44° C | 55% | 1017 hPa | 0 mm | - | - | - |
| 1787961687 | 13.89° C | 55% | 1017 hPa | 0 mm | - | - | - |
| 1787960744 | 14.44° C | 60% | 1017 hPa | 0 mm | - | - | - |
| 1787959791 | 16.11° C | 51% | 1015 hPa | 0 mm | - | - | - |
* Rain latest hour (hover to see other rain measurements)
** Current wind speed in m/s (hover to see current wind gust speed)